Weather Roundup
Issued by NWS

Home | Current Version | Previous Version | Graphics & Text | Print | Product List | Glossary Off
Versions: 1 2 3 4 5 6 7 8 9 10 11 12 13 14 15 16 17 18 19 20 21 22 23 24 25 26 27 28 29 30 31 32 33 34 35 36 37 38 39 40 41 42 43 44 45 46 47 48 49 50

000
NZUS93 KARX 291359
HRRWXR

CURRENT HOURLY OBSERVATIONS ACROSS
MUCH OF THE UPPER MISSISSIPPI VALLEY
NATIONAL WEATHER SERVICE LA CROSSE WI
900 AM CDT SAT APR 29 2017


...SOUTHEAST MINNESOTA...


CITY           SKY/WX    TMP DP  RH WIND       PRES   REMARKS
ROCHESTER      CLOUDY    40  30  67 E14       30.25R WCI  32
ROCHESTER/MAYO FAIR      41  28  60 E7G17     30.26S
WINONA         CLOUDY    43  28  56 E12       30.28F
AUSTIN         CLOUDY    39  28  65 E13G18    30.23F WCI  32
ALBERT LEA     PTSUNNY   37  28  70 E14G20    30.24F WCI  29
DODGE CENTER   CLOUDY    39  30  70 E13G21    30.25S WCI  32
PRESTON        MOSUNNY   39  28  63 NE10      30.24F WCI  32
OWATONNA       CLOUDY    39  27  60 E13G20    30.26S WCI  32
FARIBAULT      CLOUDY    39  28  65 NE9       30.28R WCI  33
$$

...ELSEWHERE IN MINNESOTA...


CITY           SKY/WX    TMP DP  RH WIND       PRES   REMARKS
MINNEAPOLIS    CLOUDY    41  25  53 E10       30.30S
INTNL FALLS    SUNNY     40  25  55 E5        30.30R
DULUTH         SUNNY     41  23  48 SE8       30.32R
RED WING       CLOUDY    43  23  45 E9G18     30.29R
REDWOOD FALLS  CLOUDY    41  27  57 E10       30.31R
MANKATO        CLOUDY    39  28  64 E13       30.28R WCI  31
WORTHINGTON    CLOUDY    39  29  67 NE17      30.26R WCI  30
FAIRMONT       CLOUDY    38  31  76 NE13      30.26R WCI  30
$$

...SOUTHWEST WISCONSIN...


CITY           SKY/WX    TMP DP  RH WIND       PRES   REMARKS
LA CROSSE      CLOUDY    43  27  53 E12       30.27R
PRAIRIE DU CHI CLOUDY    43  31  63 NE8       30.23R
BOSCOBEL       CLOUDY    44  30  57 NE10G21   30.23R
LONE ROCK      NOT AVBL
PLATTEVILLE    CLOUDY    44  36  74 NE17G23   30.19R
FORT MC COY    CLOUDY    41  29  62 NE8G17    30.27S
MAUSTON-NEW LI CLOUDY    40  29  65 NE5       30.26R
VIROQUA        FAIR      39  29  68 NE16      30.23F WCI  30
WIS DELLS      CLOUDY    39  28  63 NE15      30.25R WCI  30
$$

...ELSEWHERE IN WISCONSIN...


CITY           SKY/WX    TMP DP  RH WIND       PRES   REMARKS
MILWAUKEE      CLOUDY    41  33  73 N21G28    30.22R
MADISON        CLOUDY    41  32  70 NE16      30.22S
GREEN BAY      SUNNY     42  29  59 NE17G23   30.29R
EAU CLAIRE     NOT AVBL
BLACK RVR FLS  FAIR      41  25  52 E13G18    30.27F
MEDFORD        SUNNY     37  25  61 NE13G22   30.27R WCI  28
WAUSAU         CLOUDY    39  24  55 NE10      30.28R WCI  32
WIS RAPIDS     CLOUDY    40  24  53 E14G23    30.29R WCI  32
MARSHFIELD     SUNNY     38  24  57 NE15G23   30.27R WCI  29
RICE LAKE      MOSUNNY   38  27  63 NE8       30.33S WCI  32
$$

...NORTHEAST IOWA...


CITY           SKY/WX    TMP DP  RH WIND       PRES   REMARKS
WATERLOO       PTSUNNY   44  34  67 NE13      30.18S
DUBUQUE        CLOUDY    45  34  65 NE17G26   30.15F
DECORAH        PTSUNNY   41  32  70 E12       30.21S
MASON CITY     MOSUNNY   42  33  70 E18G24    30.22F
CHARLES CITY   PTSUNNY   41  34  75 NE14G21   30.22S
OELWEIN        CLOUDY    43  36  75 NE14G21   30.18S
$$

...ELSEWHERE IN IOWA...


CITY           SKY/WX    TMP DP  RH WIND       PRES   REMARKS
DES MOINES     CLOUDY    46  36  68 NE18G26   30.08F
IOWA CITY      CLOUDY    48  40  73 NE22G29   30.08F
FORT DODGE     CLOUDY    41  30  65 NE13      30.18F
MARSHALLTOWN   CLOUDY    43  36  76 NE18      30.12F
CEDAR RAPIDS   CLOUDY    45  39  79 NE23      30.08F
$$

...NORTHERN ILLINOIS...


CITY           SKY/WX    TMP DP  RH WIND       PRES   REMARKS
CHICAGO-OHARE  CLOUDY    45  32  60 NE21      30.16R
CHICAGO-MIDWAY CLOUDY    46  36  68 N20G29    30.14S
MOLINE         CLOUDY    48  37  65 NE21      30.06F
ROCKFORD       CLOUDY    46  32  58 NE21G26   30.17F
PEORIA         CLOUDY    48  42  80 NE23G33   29.97F
$$

NOTE: "FAIR" INDICATES FEW OR NO CLOUDS BELOW 12,000 FEET WITH NO
SIGNIFICANT WEATHER AND/OR OBSTRUCTIONS TO VISIBILITY. WIND
SPEEDS ARE IN MILES-PER-HOUR.




USA.gov is the U.S. government's official web portal to all federal, state and local government web resources and services.